OPS 7898 (P/L 4)

Satellite information

Favourite Embed

Satellite Type and Status

PAYLOADIN ORBIT

Key statistics

Satellite OPS 7898 (P/L 4) at a glance.

Uptime

19505

Days in orbit

Revolutions

≈ 13.7

Per day

Orbit

LEO

Low Earth Orbit

Inclination

70.0

Latest

Satellite identification and parameters

Extended collection of information and parameters for OPS 7898 (P/L 4).

Object identification

Identified? True

Debris? False

Object name: OPS 7898 (P/L 4)

International designator: 1971-110E

Object number (NORAD): 5682

Object ID (CCSDS): 5682

Country: UNITED STATES OF AMERICA (US)

Current information (Y/N): Y

RCS size: MEDIUM

Orbital parameters

Period: 104.757 minutes

Inclination: 69.9866 deg

SMA: 7361.197 km

Apoapsis: 990.442 km

Periapsis: 975.683 km

RAAN: 122.8384 deg

Eccentricy: 0.0010025

Argument of periapsis: 307.6503 deg

Mean anomaly: 52.3681 deg

Mean motion: 13.74611802 rev/day

Mean motion (dot): 0.00000021 rev/day2

B* drag term: 0.000074972 1/REarth

Two-line elements (TLE)

Creation date: May 8, 2025, 3:01 a.m.

Reference frame: TEME

Reference center: EARTH

Epoch: May 7, 2025, 4:43 p.m. UTC

TLE line 0: 0 OPS 7898 (P/L 4)

TLE line 1: 1 05682U 71110E 25127.69708754 .00000021 00000-0 74972-4 0 9990

TLE line 2: 2 05682 69.9866 122.8384 0010025 307.6503 52.3681 13.74611802289453

Live tracking on map

Real-time ground track for satellite OPS 7898 (P/L 4).

In-orbit conjunctions

There are no conjunctions computed for OPS 7898 (P/L 4), at the moment. Check back to stay up to date, as we update our databases every day.

Go to all conjunctions

Associated space launch

Poppy was the follow-on ELINT system, which succeeded the Grab ELINT satellite system.

OPS 7898 (P/L 4) was lifted into orbit during the mission ‘Thorad SLV-2G Agena D | Poppy 9A,B,C,D’, on board a Thorad SLV-2G Agena D space rocket.

The launch took place on Dec. 14, 1971, 12:13 p.m. from Space Launch Complex 1W.

For more information about the launch, click the button.

Launch to space Thorad SLV-2G Agena D | Poppy 9A,B,C,D
Thorad SLV-2G Agena D | Poppy 9A,B,C,D

Agency: N/A

Status: Launch Successful

Launch date: Dec. 14, 1971, 12:13 p.m. UTC

Rocket: Thorad SLV-2G Agena D

Launch pad: Space Launch Complex 1W

Location: Vandenberg SFB, CA, USA

...

Latest news about this satellite

There are no fresh news available about this satellite. Check back as we update our databases every day.


Newsletter sign-up

Weekly statistics, charts and insights to help you stay on top of the space industry.